This is the latest recevied weather packets stored in our database for station/object OH5GWF-1. If no packets are shown the sender has not sent any weather packets the latest 10 day(s).
| Time | Temp. | Humidity | Pressure | Rain* | Wind** | Luminosity | Snow |
|---|---|---|---|---|---|---|---|
| 1777887355 | 16.11° C | 62% | 1003 hPa | 0 mm | - | - | - |
| 1777886934 | 16.67° C | 61% | 1002.9 hPa | 0 mm | - | - | - |
| 1777886511 | 16.67° C | 62% | 1002.9 hPa | 0 mm | - | - | - |
| 1777886091 | 16.67° C | 62% | 1002.9 hPa | 0 mm | - | - | - |
| 1777885680 | 16.67° C | 63% | 1003 hPa | 0 mm | - | - | - |
| 1777885259 | 16.11° C | 63% | 1003 hPa | 0 mm | - | - | - |
| 1777884836 | 16.11° C | 62% | 1003 hPa | 0 mm | - | - | - |
| 1777884413 | 15.56° C | 64% | 1003 hPa | 0 mm | - | - | - |
| 1777883992 | 15.56° C | 64% | 1003.1 hPa | 0 mm | - | - | - |
| 1777883581 | 15° C | 66% | 1003.2 hPa | 0 mm | - | - | - |
| 1777883158 | 15° C | 65% | 1003.2 hPa | 0 mm | - | - | - |
| 1777882736 | 15° C | 65% | 1003.3 hPa | 0 mm | - | - | - |
| 1777882313 | 15.56° C | 64% | 1003.3 hPa | 0 mm | - | - | - |
| 1777881890 | 16.11° C | 62% | 1003.2 hPa | 0 mm | - | - | - |
| 1777881469 | 16.67° C | 61% | 1003.3 hPa | 0 mm | - | - | - |
| 1777881059 | 16.67° C | 62% | 1003.2 hPa | 0 mm | - | - | - |
| 1777880637 | 16.67° C | 62% | 1003.3 hPa | 0 mm | - | - | - |
| 1777880213 | 17.22° C | 64% | 1003.3 hPa | 0 mm | - | - | - |
| 1777879792 | 16.11° C | 66% | 1003.4 hPa | 0 mm | - | - | - |
| 1777879369 | 15° C | 69% | 1003.5 hPa | 0 mm | - | - | - |
| 1777878958 | 14.44° C | 70% | 1003.5 hPa | 0 mm | - | - | - |
| 1777878537 | 14.44° C | 71% | 1003.8 hPa | 0 mm | - | - | - |
| 1777878114 | 14.44° C | 72% | 1004 hPa | 0 mm | - | - | - |
| 1777877691 | 14.44° C | 73% | 1004.1 hPa | 0 mm | - | - | - |
| 1777877269 | 13.89° C | 76% | 1004.3 hPa | 0 mm | - | - | - |
* Rain latest hour (hover to see other rain measurements)
** Current wind speed in m/s (hover to see current wind gust speed)